sat.trackr.live / text

‹ back to catalog

STARLINK-34541

NORAD 64771 · 2025-147S

PAYLOAD ACTIVE UNKNOWN

§ Identity

Operator
Country
US
Launch date
2025-07-08
Launch site
AFETR
Launch vehicle
Mass (kg)
RCS (m²)

Purposes: comms

External: N2YO · Heavens-Above · Gunter

§ Orbital elements

Epoch: 2026-09-20T14:19:30.963360Z

Period
93.85 min
Inclination
53.1593°
Eccentricity
0.0000938
Mean motion
15.34359427 rev/d
Perigee alt
462.2 km
Apogee alt
463.5 km
Semi-major
6,841.0 km
B*
2.1708e-4
RAAN
53.1189°
Arg perigee
0.2178°
Mean anomaly
359.8825°
Rev number
6,858

§ Raw data

STARLINK-345411 64771U 25147S   26263.59688615  .00006956  00000+0  21708-3 0  99972 64771  53.1593  53.1189 0000938   0.2178 359.8825 15.34359427 68588

JSON: /api/v1/satellites/64771 · /tle

For live sub-satellite position, see the globe view (requires WebGL).

§ Visibility from observer

Set your observer location to see the next 7 days of passes ≥ 10°. The values pass through the URL so the page stays shareable.

No JS? Fill the form by hand. The geolocation button needs JavaScript.